Regional Weather Roundup
Issued by NWS Charleston, SC

Current Version | Previous Version | Graphics & Text | Print | Product List | Glossary On
Versions: 1 2 3 4 5 6 7 8 9 10 11 12 13 14 15 16 17 18 19 20 21 22 23 24 25 26 27 28 29 30 31 32 33 34 35 36 37 38 39 40 41 42 43 44 45 46 47 48 49 50
000
ASUS42 KCHS 271510
RWRCHS
REGIONAL WEATHER ROUNDUP
NATIONAL WEATHER SERVICE CHARLESTON SC
1100 AM EDT WED AUG 27 2014

NOTE: "FAIR" INDICATES FEW OR NO CLOUDS BELOW 12,000 FEET WITH NO
SIGNIFICANT WEATHER AND/OR OBSTRUCTIONS TO VISIBILITY.

NOT ALL STATIONS ARE QUALITY CONTROLLED BY THE NATIONAL
WEATHER SERVICE. USE DATA WITH CAUTION...ESPECIALLY
DEWPOINT OBSERVATIONS.

SCZ027-030-031-034>040-042>050-271600-
...SOUTH CAROLINA...

CITY           SKY/WX    TMP DP  RH WIND       PRES   REMARKS
N CHARLESTON   MOSUNNY   82  62  50 N9        30.04R
WATERFRONT PRK   N/A     79 N/A N/A N14         N/A
FORT JOHNSON   NOT AVBL
MOUNT PLEASANT FAIR      81  64  57 N9        30.03S
JOHNS ISLAND   SUNNY     81  64  57 N12G17    30.04R
PINOPOLIS        N/A     77  64  65 N9        29.95F
MONCKS CORNER  NOT AVBL
SUMMERVILLE    FAIR      79  63  57 N10       30.05S
BEAUFORT MCAS  MOSUNNY   82  61  48 NE12      30.05R
BEAUFORT ARPT  FAIR      79  64  61 NE9       30.04R
HILTON HEAD IS SUNNY     82  63  51 N12       30.06R
GEORGETOWN     NOT AVBL
WALTERBORO     SUNNY     81  57  44 N8        30.06S
ORANGEBURG     SUNNY     80  60  50 N10       30.07S
BARNWELL       FAIR      81  61  50 NE10      30.08S
AIKEN          FAIR      81  63  54 N14       30.13R
MANNING        FAIR      81  64  57 N12       30.06R
KINGSTREE      NOT AVBL
COLUMBIA       MOSUNNY   81  59  47 N12G17    30.08S
SUMTER         SUNNY     80  64  58 N10       30.06S
FLORENCE       SUNNY     80  60  50 N13       30.06S
MYRTLE BEACH   SUNNY     81  64  57 N12       30.02S
N MYRTLE BEACH NOT AVBL

$$

GAZ063-065-086>088-099>101-113>116-118-119-134-136>141-150-271600-
...GEORGIA...

CITY           SKY/WX    TMP DP  RH WIND       PRES   REMARKS
SAVANNAH ARPT  SUNNY     82  62  50 N12       30.06S
HUNTER AAF     SUNNY     81  63  52 N13       30.04R
FORT STEWART   SUNNY     82  62  51 N7        30.05R
STATESBORO     NOT AVBL
SYLVANIA       SUNNY     80  66  61 NE8       30.08S
CLAXTON        NOT AVBL
THOMSON        SUNNY     81  69  68 NE7       30.15S
AUGUSTA-BUSH   SUNNY     80  61  52 N8        30.08S
AUGUSTA-DANIEL SUNNY     80  61  52 NW12      30.10S
SWAINSBORO     FAIR      82  66  57 N3        30.09S
VIDALIA          N/A     81  64  57 N7        30.09R
ALMA           SUNNY     82  64  54 MISG      30.07R
WAYCROSS       SUNNY     86  66  51 NE9       30.06R HAZE
JESUP            N/A     84  66  54 NE7       30.06S
BRUNSWICK      SUNNY     82  61  47 N6        30.05R
SAINT SIMONS   SUNNY     83  63  50 NE10      30.04R

$$

SCZ027-028-034-036>038-045-046-048>050-GAZ119-141-271600-
...LAKE AND SUPPLEMENTAL COASTAL OBSERVATIONS...

STATION/POSITION TIME  TEMP    WIND        PRES    WAVE   SWELL
                       AIR SEA DIR/SP/G            HT/PER HT/PER/DIR
                 (UTC) (F)     (DEG/KT/KT) (MB)    (FT/S) (FT/S/D)
UPR LAKE MARION  NOT AVBL
WINYAH BAY       1400   75     360/  7     1016.0S
LAKE MURRAY      1400   77     350/  3/  6 1018.3S
ACE BASIN NERRS  1400   77      10/  4     1017.0S
FORT PULASKI     1500   77      10/ 11/ 14 1017.6R
SAPELO ISLAND    NOT AVBL

$$

ANZ835-935-AMZ111-154-330-350-352-354-374-450-454-472-271600-
...C-MAN AND BUOY OBSERVATIONS...

STATION/POSITION TIME  TEMP    WIND        PRES    WAVE   SWELL
                       AIR SEA DIR/SP/G            HT/PER HT/PER/DIR
                 (UTC) (F)     (DEG/KT/KT) (MB)    (FT/S) (FT/S/D)
FOLLY BEACH CMAN 1400   76     360/ 10/ 13 1017.0R
BUOY 41004       1500   79 83   10/ 17/ 19 1015.0R   6/10   5/10
BUOY 41008       1500   79 84   10/ 14/ 17 1016.6R   5/10   3/ 90/10
5E ST. MARYS GA  1400      83                N/A     5/10   2/ 90/11
FRYING PAN BUOY  NOT AVBL
BUOY 41025       1500   78     360/ 21/ 27 1013.4R   9/ 8   7/130/12
CAPE LOOKOUT NC  1400   76     360/ 19/ 22 1014.9R
BUOY 41002       1432   79 81  350/ 23/ 29 1008.1R  13/11   7/ 90/11
BUOY 41010       1500   82 84  350/  8/  8 1014.5R   8/10   8/ 40/10
BUOY 41012       NOT AVBL
ST AUGUSTINE FL  1500   81      20/ 14/ 16 1017.2R
CAPERS NEARSHORE 1400   75      30/ 14/ 17   N/A
FRIPP NEARSHORE  NOT AVBL


$$



USA.gov is the U.S. government's official web portal to all federal, state and local government web resources and services.